| time (UTC) | temp F | wind direction | speed MPH | gust MPH | rain 1hr in | rain 24hr in | rain mn in | humidity % | barometer mb |
| 20260506041928 | 46 | 200 | 14.0 | 0.0 | 0.00 | 0.00 | 0.00 | 99 | |
| 20260506031729 | 46 | 200 | 12.0 | 0.0 | 0.00 | 0.00 | 0.00 | 99 | |
| 20260506021729 | 45 | 190 | 12.0 | 0.0 | 0.00 | 0.00 | 0.00 | 99 | |
| 20260506011829 | 46 | 190 | 13.0 | 0.0 | 0.00 | 0.00 | 0.00 | 93 | |
| 20260506001728 | 46 | 260 | 8.0 | 0.0 | 0.00 | 0.00 | 0.00 | 99 | |
| 20260505231728 | 48 | 290 | 8.0 | 0.0 | 0.00 | 0.00 | 0.00 | 93 | |
| 20260505221727 | 48 | 220 | 14.0 | 0.0 | 0.00 | 0.00 | 0.00 | 93 | |
| 20260505211745 | 48 | 220 | 16.0 | 38.0 | 0.00 | 0.00 | 0.00 | 93 | |
| 20260505201744 | 52 | 10 | 12.0 | 0.0 | 0.00 | 0.00 | 0.00 | 99 | |
| 20260505191745 | 52 | 10 | 13.0 | 0.0 | 0.00 | 0.00 | 0.00 | 99 | |
| 20260505181730 | 54 | 360 | 13.0 | 0.0 | 0.00 | 0.00 | 0.00 | 93 | |
| 20260505171729 | 54 | 350 | 12.0 | 18.0 | 0.00 | 0.00 | 0.00 | 93 | |
| 20260505161828 | 55 | 350 | 12.0 | 0.0 | 0.00 | 0.00 | 0.00 | 93 | |
| 20260505151727 | 57 | 350 | 13.0 | 0.0 | 0.00 | 0.00 | 0.00 | 82 | |
| 20260505121728 | 61 | 10 | 13.0 | 0.0 | 0.00 | 0.00 | 0.00 | 67 | |
| 20260505111729 | 61 | 350 | 10.0 | 0.0 | 0.00 | 0.00 | 0.00 | 67 | |
| 20260505101729 | 59 | 350 | 10.0 | 0.0 | 0.00 | 0.00 | 0.00 | 72 | |
| 20260505091728 | 59 | 350 | 7.0 | 0.0 | 0.00 | 0.00 | 0.00 | 72 | |
| 20260505081729 | 57 | 360 | 9.0 | 0.0 | 0.00 | 0.00 | 0.00 | 71 | |
| 20260505071728 | 55 | 320 | 6.0 | 0.0 | 0.00 | 0.00 | 0.00 | 82 | |
| 20260505061729 | 54 | 340 | 6.0 | 0.0 | 0.00 | 0.00 | 0.00 | 81 |